カタログに戻る

FENGYUN 1C DEB

運用中SSO
NORAD 30621·DEBRIS·🇨🇳 China

打ち上げ May 10, 1999 から Taiyuan Satellite Launch Center

Loading…

次のパス (今後24時間)

TLE

最新Source: Space-Track

元期: Sep 14, 2026, 06:47 UTC

1 30621U 99025ANC 26257.28276103  .00001959  00000-0  11418-2 0  9999
2 30621  98.7021 194.4343 0132270 252.3358 267.6528 14.05370412994580

AllMySatでFENGYUN 1C DEBをリアルタイム追跡

Download on the App Store